User: anonymous   Login
Location: Dover
(39.1580°N, 75.5250°W)
Time: 16:26:51
(UTC-04:00)
Language:

Cosmos 1437 Rocket - Orbit

View from above orbital plane
View from above orbital plane
View from above satellite
View from above satellite

Ground track
Ground track

The orbit data is extracted from the following two-line orbital elements,

1 13771U 83003B   16179.79341496 +.00001323 +00000-0 +79498-4 0  9990
2 13771 081.1534 051.4972 0043926 100.2269 260.3914 15.09376359820323
Epoch (UTC): 27 June 2016 19:02:31
Eccentricity: 0.0043926
inclination: 81.1534°
perigee height: 508 km
apogee height: 568 km
right ascension of ascending node: 51.4972°
argument of perigee: 100.2269°
revolutions per day: 15.09376359
mean anomaly at epoch: 260.3914°
orbit number at epoch: 82032

The dashed part of the orbit path shows where the satellite is in the earth's shadow,  

DLR